,,,PA_Meas_PMT16A,,PR_Meas_QMR101_102,,RH_Meas_QMH101,,SR_Meas_QMS101,,TA_Meas_QMH101,,GenWind,,GenWind,
date,time,status,PA,status,PR,status,RH,status,SR,status,TA,status,DirAvg,status,SpdAvg,
2010-09-24, 00:00:04,VALID,999.265,VALID,0,VALID,88.7706,VALID,0,VALID,24.1677,VALID,157,VALID,0.701563,
2010-09-24, 00:01:04,VALID,999.273,VALID,0,VALID,88.618,VALID,0,VALID,24.1872,VALID,135,VALID,0.492969,
2010-09-24, 00:02:04,VALID,999.251,VALID,0,VALID,88.4502,VALID,0,VALID,24.2067,VALID,135,VALID,0.184766,
2010-09-24, 00:03:04,VALID,999.25,VALID,0,VALID,88.5723,VALID,0,VALID,24.2476,VALID,232,VALID,0.451172,
2010-09-24, 00:04:04,VALID,999.262,VALID,0,VALID,88.5646,VALID,0,VALID,24.3043,VALID,249,VALID,0.724609,
2010-09-24, 00:05:04,VALID,999.258,VALID,0,VALID,88.2594,VALID,0,VALID,24.3824,VALID,246,VALID,0.595312,
2010-09-24, 00:06:04,VALID,999.232,VALID,0,VALID,87.9466,VALID,0,VALID,24.4214,VALID,246,VALID,0.197266,
2010-09-24, 00:07:04,VALID,999.284,VALID,0,VALID,87.8169,VALID,0,VALID,24.4409,VALID,246,VALID,0.254687,
2010-09-24, 00:08:04,VALID,999.289,VALID,0,VALID,87.6109,VALID,0,VALID,24.4409,VALID,246,VALID,0.527734,
2010-09-24, 00:09:04,VALID,999.292,VALID,0,VALID,87.7406,VALID,0,VALID,24.4214,VALID,246,VALID,0.675781,
2010-09-24, 00:10:04,VALID,999.282,VALID,0,VALID,87.7711,VALID,0,VALID,24.4214,VALID,246,VALID,0.619531,
2010-09-24, 00:11:04,VALID,999.309,VALID,0,VALID,87.672,VALID,0,VALID,24.4214,VALID,23,VALID,0.712109,
2010-09-24, 00:12:04,VALID,999.293,VALID,0,VALID,87.5041,VALID,0,VALID,24.4428,VALID,37,VALID,0.775781,
2010-09-24, 00:13:04,VALID,999.282,VALID,0,VALID,87.2523,VALID,0,VALID,24.48,VALID,58,VALID,1.06758,
2010-09-24, 00:14:04,VALID,999.27,VALID,0,VALID,87.2981,VALID,0,VALID,24.48,VALID,77,VALID,0.971484,
2010-09-24, 00:15:04,VALID,999.27,VALID,0,VALID,87.9161,VALID,0,VALID,24.48,VALID,98,VALID,1.07852,
2010-09-24, 00:16:04,VALID,999.254,VALID,0,VALID,88.2442,VALID,0,VALID,24.4604,VALID,98,VALID,1.06953,
2010-09-24, 00:17:04,VALID,999.238,VALID,0,VALID,88.351,VALID,0,VALID,24.4604,VALID,98,VALID,1.10078,
2010-09-24, 00:18:04,VALID,999.257,VALID,0,VALID,88.5189,VALID,0,VALID,24.4409,VALID,98,VALID,1.01914,
2010-09-24, 00:19:04,VALID,999.21,VALID,0,VALID,88.6638,VALID,0,VALID,24.4214,VALID,98,VALID,0.811719,
2010-09-24, 00:20:04,VALID,999.179,VALID,0,VALID,88.7325,VALID,0,VALID,24.4214,VALID,98,VALID,0.383203,
2010-09-24, 00:21:04,VALID,999.139,VALID,0,VALID,88.5417,VALID,0.112286,VALID,24.3824,VALID,98,VALID,0.492188,
2010-09-24, 00:22:04,VALID,999.166,VALID,0,VALID,88.5417,VALID,0,VALID,24.3629,VALID,98,VALID,0.521094,
2010-09-24, 00:23:04,VALID,999.16,VALID,0,VALID,88.5799,VALID,0,VALID,24.3238,VALID,98,VALID,0.491406,
2010-09-24, 00:24:04,VALID,999.096,VALID,0,VALID,88.6257,VALID,0,VALID,24.3238,VALID,98,VALID,0.551953,
2010-09-24, 00:25:04,VALID,999.095,VALID,0,VALID,88.7172,VALID,0,VALID,24.3238,VALID,16,VALID,0.712891,
2010-09-24, 00:26:04,VALID,999.05,VALID,0,VALID,88.8851,VALID,0,VALID,24.3433,VALID,16,VALID,0.447656,
2010-09-24, 00:27:04,VALID,999.07,VALID,0,VALID,88.9614,VALID,0,VALID,24.3238,VALID,16,VALID,0.302344,
2010-09-24, 00:28:04,VALID,999.029,VALID,0,VALID,88.9232,VALID,0,VALID,24.3238,VALID,214,VALID,0.601563,
2010-09-24, 00:29:04,VALID,999.002,VALID,0,VALID,88.824,VALID,0,VALID,24.3433,VALID,214,VALID,0.179688,
2010-09-24, 00:30:04,VALID,999.024,VALID,0,VALID,88.6486,VALID,0,VALID,24.3433,VALID,214,VALID,0.338672,
2010-09-24, 00:31:04,VALID,999.027,VALID,0,VALID,88.4654,VALID,0,VALID,24.3433,VALID,343,VALID,0.430859,
2010-09-24, 00:32:04,VALID,999.042,VALID,0,VALID,88.5112,VALID,0,VALID,24.3629,VALID,343,VALID,0.444531,
2010-09-24, 00:33:04,VALID,999.039,VALID,0,VALID,88.3892,VALID,0,VALID,24.4037,VALID,343,VALID,0.576563,
2010-09-24, 00:34:04,VALID,999.014,VALID,0,VALID,88.145,VALID,0,VALID,24.3824,VALID,45,VALID,1.15313,
2010-09-24, 00:35:04,VALID,998.974,VALID,0,VALID,87.7025,VALID,0,VALID,24.4019,VALID,43,VALID,1.22461,
2010-09-24, 00:36:04,VALID,998.944,VALID,0,VALID,87.4431,VALID,0,VALID,24.5013,VALID,36,VALID,0.850391,
2010-09-24, 00:37:04,VALID,998.917,VALID,0,VALID,87.1837,VALID,0,VALID,24.4995,VALID,36,VALID,0.309375,
2010-09-24, 00:38:04,VALID,998.924,VALID,0,VALID,87.3057,VALID,0,VALID,24.4995,VALID,36,VALID,0.338672,
2010-09-24, 00:39:04,VALID,998.878,VALID,0,VALID,87.5117,VALID,0,VALID,24.48,VALID,36,VALID,0.404297,
2010-09-24, 00:40:04,VALID,998.882,VALID,0,VALID,87.4202,VALID,0,VALID,24.4995,VALID,36,VALID,0.221094,
2010-09-24, 00:41:04,VALID,998.846,VALID,0,VALID,87.1379,VALID,0,VALID,24.4995,VALID,36,VALID,0.588281,
2010-09-24, 00:42:04,VALID,998.834,VALID,0,VALID,87.3744,VALID,0,VALID,24.5209,VALID,36,VALID,0.855859,
2010-09-24, 00:43:04,VALID,998.785,VALID,0,VALID,87.4431,VALID,0,VALID,24.48,VALID,41,VALID,0.702734,
2010-09-24, 00:44:04,VALID,998.792,VALID,0,VALID,87.6491,VALID,0,VALID,24.4409,VALID,21,VALID,0.868359,
2010-09-24, 00:45:04,VALID,998.752,VALID,0,VALID,87.7864,VALID,0,VALID,24.4214,VALID,12,VALID,0.837891,
2010-09-24, 00:46:04,VALID,998.748,VALID,0,VALID,87.8474,VALID,0,VALID,24.4019,VALID,12,VALID,0.417578,
2010-09-24, 00:47:04,VALID,998.736,VALID,0,VALID,88.0382,VALID,0,VALID,24.4037,VALID,214,VALID,0.827344,
2010-09-24, 00:48:04,VALID,998.693,VALID,0,VALID,88.1068,VALID,0,VALID,24.3629,VALID,218,VALID,0.494141,
2010-09-24, 00:49:04,VALID,998.687,VALID,0,VALID,88.084,VALID,0,VALID,24.4037,VALID,217,VALID,0.482812,
2010-09-24, 00:50:04,VALID,998.704,VALID,0,VALID,88.0077,VALID,0,VALID,24.4037,VALID,200,VALID,0.235156,
2010-09-24, 00:51:04,VALID,998.679,VALID,0,VALID,87.9161,VALID,0,VALID,24.4019,VALID,200,VALID,0.366797,
2010-09-24, 00:52:04,VALID,998.666,VALID,0,VALID,87.7788,VALID,0,VALID,24.4019,VALID,200,VALID,0.582031,
2010-09-24, 00:53:04,VALID,998.654,VALID,0,VALID,87.7177,VALID,0,VALID,24.4019,VALID,201,VALID,0.451172,
2010-09-24, 00:54:04,VALID,998.641,VALID,0,VALID,87.6033,VALID,0,VALID,24.3824,VALID,200,VALID,0.219922,
2010-09-24, 00:55:04,VALID,998.632,VALID,0,VALID,87.794,VALID,0,VALID,24.3629,VALID,200,VALID,0.179688,
2010-09-24, 00:56:04,VALID,998.66,VALID,0,VALID,87.9466,VALID,0,VALID,24.3238,VALID,200,VALID,0.111719,
2010-09-24, 00:57:04,VALID,998.647,VALID,0,VALID,88.1297,VALID,0,VALID,24.2653,VALID,200,VALID,0.220313,
2010-09-24, 00:58:04,VALID,998.64,VALID,0,VALID,88.2518,VALID,0,VALID,24.2653,VALID,200,VALID,0,
2010-09-24, 00:59:04,VALID,998.638,VALID,0,VALID,88.2289,VALID,0,VALID,24.2458,VALID,200,VALID,0,
2010-09-24, 01:00:04,VALID,998.609,VALID,0,VALID,88.3357,VALID,0,VALID,24.2458,VALID,200,VALID,0,
2010-09-24, 01:01:04,VALID,998.614,VALID,0,VALID,88.3434,VALID,0,VALID,24.2476,VALID,201,VALID,0.440234,
2010-09-24, 01:02:04,VALID,998.615,VALID,0,VALID,88.4044,VALID,0.112286,VALID,24.2067,VALID,202,VALID,0.545313,
2010-09-24, 01:03:04,VALID,998.651,VALID,0,VALID,88.5646,VALID,0,VALID,24.1482,VALID,320,VALID,0.539844,
2010-09-24, 01:04:04,VALID,998.644,VALID,0,VALID,88.7554,VALID,0,VALID,24.1092,VALID,320,VALID,0.459766,
2010-09-24, 01:05:04,VALID,998.621,VALID,0,VALID,88.8546,VALID,0,VALID,24.0701,VALID,340,VALID,0.694922,
2010-09-24, 01:06:04,VALID,998.638,VALID,0,VALID,89.1368,VALID,0.112286,VALID,24.0506,VALID,340,VALID,0.801172,
2010-09-24, 01:07:04,VALID,998.628,VALID,0,VALID,89.0682,VALID,0.112286,VALID,24.0311,VALID,3,VALID,0.875781,
2010-09-24, 01:08:04,VALID,998.602,VALID,0,VALID,89.2055,VALID,0,VALID,24.0116,VALID,25,VALID,0.885156,
2010-09-24, 01:09:04,VALID,998.612,VALID,0,VALID,89.2818,VALID,0,VALID,24.0116,VALID,25,VALID,0.571875,
2010-09-24, 01:10:04,VALID,998.61,VALID,0,VALID,89.2971,VALID,0.112286,VALID,23.9921,VALID,29,VALID,0.678906,
2010-09-24, 01:11:04,VALID,998.57,VALID,0,VALID,89.3657,VALID,0,VALID,23.9921,VALID,29,VALID,0.452344,
2010-09-24, 01:12:04,VALID,998.557,VALID,0,VALID,89.6633,VALID,0,VALID,24.0116,VALID,29,VALID,0.253516,
2010-09-24, 01:13:04,VALID,998.579,VALID,0,VALID,89.5641,VALID,0,VALID,23.9921,VALID,29,VALID,0.379687,
2010-09-24, 01:14:04,VALID,998.582,VALID,0,VALID,89.7549,VALID,0,VALID,23.9921,VALID,39,VALID,0.648828,
2010-09-24, 01:15:04,VALID,998.581,VALID,0,VALID,90.0829,VALID,0,VALID,23.9921,VALID,95,VALID,0.954687,
2010-09-24, 01:16:04,VALID,998.561,VALID,0,VALID,90.1516,VALID,0,VALID,23.9921,VALID,95,VALID,0.865625,
2010-09-24, 01:17:04,VALID,998.552,VALID,0,VALID,90.2279,VALID,0,VALID,24.0116,VALID,91,VALID,0.799219,
2010-09-24, 01:18:04,VALID,998.548,VALID,0,VALID,89.8922,VALID,0,VALID,23.9921,VALID,91,VALID,0.620703,
2010-09-24, 01:19:04,VALID,998.514,VALID,0,VALID,89.8388,VALID,0,VALID,23.9939,VALID,91,VALID,0.332422,
2010-09-24, 01:20:04,VALID,998.508,VALID,0,VALID,89.8846,VALID,0,VALID,23.9336,VALID,91,VALID,0,
2010-09-24, 01:21:04,VALID,998.424,VALID,0,VALID,89.9837,VALID,0,VALID,23.914,VALID,91,VALID,0.304297,
2010-09-24, 01:22:04,VALID,998.439,VALID,0,VALID,90.205,VALID,0,VALID,23.914,VALID,25,VALID,0.919531,
2010-09-24, 01:23:04,VALID,998.423,VALID,0,VALID,90.2126,VALID,0,VALID,23.8945,VALID,25,VALID,0.863281,
2010-09-24, 01:24:04,VALID,998.505,VALID,0,VALID,90.06,VALID,0,VALID,23.8945,VALID,25,VALID,0.355078,
2010-09-24, 01:25:04,VALID,998.488,VALID,0,VALID,89.8769,VALID,0,VALID,23.8768,VALID,25,VALID,0.123047,
2010-09-24, 01:26:04,VALID,998.448,VALID,0,VALID,90.0906,VALID,0,VALID,23.8573,VALID,25,VALID,0.158984,
2010-09-24, 01:27:04,VALID,998.457,VALID,0,VALID,90.3576,VALID,0,VALID,23.836,VALID,25,VALID,0.415625,
2010-09-24, 01:28:04,VALID,998.412,VALID,0,VALID,90.4034,VALID,0,VALID,23.8165,VALID,25,VALID,0.527344,
2010-09-24, 01:29:04,VALID,998.463,VALID,0,VALID,90.3805,VALID,0,VALID,23.797,VALID,25,VALID,0.430469,
2010-09-24, 01:30:04,VALID,998.485,VALID,0,VALID,90.411,VALID,0,VALID,23.7579,VALID,61,VALID,0.601953,
2010-09-24, 01:31:04,VALID,998.49,VALID,0,VALID,90.2203,VALID,0,VALID,23.7189,VALID,61,VALID,0.371484,
2010-09-24, 01:32:04,VALID,998.479,VALID,0,VALID,90.0677,VALID,0,VALID,23.6799,VALID,61,VALID,0.214844,
2010-09-24, 01:33:04,VALID,998.488,VALID,0,VALID,90.1363,VALID,0,VALID,23.6622,VALID,61,VALID,0.0410156,
2010-09-24, 01:34:04,VALID,998.472,VALID,0,VALID,90.2279,VALID,0,VALID,23.6019,VALID,61,VALID,0,
2010-09-24, 01:35:04,VALID,998.452,VALID,0,VALID,90.4034,VALID,0,VALID,23.6019,VALID,61,VALID,0,
2010-09-24, 01:36:04,VALID,998.457,VALID,0,VALID,90.6017,VALID,0,VALID,23.5823,VALID,61,VALID,0.0394531,
2010-09-24, 01:37:04,VALID,998.408,VALID,0,VALID,90.8459,VALID,0,VALID,23.6232,VALID,35,VALID,0.699609,
2010-09-24, 01:38:04,VALID,998.389,VALID,0,VALID,90.9756,VALID,0,VALID,23.6019,VALID,27,VALID,1.04297,
2010-09-24, 01:39:04,VALID,998.381,VALID,0,VALID,90.8917,VALID,0,VALID,23.6036,VALID,18,VALID,1.07344,
2010-09-24, 01:40:04,VALID,998.383,VALID,0,VALID,90.6704,VALID,0,VALID,23.5841,VALID,18,VALID,0.705859,
2010-09-24, 01:41:04,VALID,998.311,VALID,0,VALID,90.5941,VALID,0,VALID,23.5451,VALID,18,VALID,0.584375,
2010-09-24, 01:42:04,VALID,998.272,VALID,0,VALID,90.762,VALID,0,VALID,23.5628,VALID,300,VALID,0.836328,
2010-09-24, 01:43:04,VALID,998.272,VALID,0,VALID,91.0519,VALID,0,VALID,23.5823,VALID,299,VALID,0.925391,
2010-09-24, 01:44:04,VALID,998.257,VALID,0,VALID,91.1663,VALID,0,VALID,23.6019,VALID,308,VALID,1.02188,
2010-09-24, 01:45:04,VALID,998.239,VALID,0,VALID,91.2503,VALID,0,VALID,23.6622,VALID,313,VALID,0.614844,
2010-09-24, 01:46:04,VALID,998.248,VALID,0,VALID,91.2884,VALID,0,VALID,23.6214,VALID,313,VALID,0.422656,
2010-09-24, 01:47:04,VALID,998.234,VALID,0,VALID,91.1968,VALID,0,VALID,23.6214,VALID,67,VALID,0.653125,
2010-09-24, 01:48:04,VALID,998.217,VALID,0,VALID,91.296,VALID,0,VALID,23.6427,VALID,78,VALID,0.6125,
2010-09-24, 01:49:04,VALID,998.188,VALID,0,VALID,91.2884,VALID,0,VALID,23.6409,VALID,78,VALID,0.275391,
2010-09-24, 01:50:04,VALID,998.142,VALID,0,VALID,91.3418,VALID,0,VALID,23.6622,VALID,351,VALID,0.778125,
2010-09-24, 01:51:04,VALID,998.153,VALID,0,VALID,91.2655,VALID,0,VALID,23.6622,VALID,349,VALID,0.480469,
2010-09-24, 01:52:04,VALID,998.122,VALID,0,VALID,91.0671,VALID,0,VALID,23.6409,VALID,349,VALID,0.484766,
2010-09-24, 01:53:04,VALID,998.175,VALID,0,VALID,91.0366,VALID,0,VALID,23.6622,VALID,349,VALID,0.283203,
2010-09-24, 01:54:04,VALID,998.174,VALID,0,VALID,90.7772,VALID,0,VALID,23.6036,VALID,349,VALID,0.358984,
2010-09-24, 01:55:04,VALID,998.166,VALID,0,VALID,90.6399,VALID,0,VALID,23.5433,VALID,48,VALID,0.775781,
2010-09-24, 01:56:04,VALID,998.191,VALID,0,VALID,90.8611,VALID,0.112286,VALID,23.5433,VALID,59,VALID,1.05039,
2010-09-24, 01:57:04,VALID,998.192,VALID,0,VALID,90.6704,VALID,0,VALID,23.5433,VALID,41,VALID,1.66055,
2010-09-24, 01:58:04,VALID,998.213,VALID,0,VALID,90.2508,VALID,0,VALID,23.5823,VALID,41,VALID,1.44258,
2010-09-24, 01:59:04,VALID,998.241,VALID,0,VALID,90.06,VALID,0,VALID,23.6232,VALID,38,VALID,1.40781,
2010-09-24, 02:00:04,VALID,998.214,VALID,0,VALID,89.854,VALID,0,VALID,23.6409,VALID,45,VALID,0.852734,
2010-09-24, 02:01:04,VALID,998.212,VALID,0,VALID,89.7014,VALID,0,VALID,23.6622,VALID,48,VALID,1.23086,
2010-09-24, 02:02:04,VALID,998.216,VALID,0,VALID,89.8693,VALID,0,VALID,23.6604,VALID,38,VALID,1.29062,
2010-09-24, 02:03:04,VALID,998.234,VALID,0,VALID,89.8235,VALID,0,VALID,23.7012,VALID,34,VALID,1.32266,
2010-09-24, 02:04:04,VALID,998.233,VALID,0,VALID,89.6862,VALID,0,VALID,23.7189,VALID,39,VALID,1.3418,
2010-09-24, 02:05:04,VALID,998.257,VALID,0,VALID,89.5641,VALID,0,VALID,23.7189,VALID,42,VALID,1.80078,
2010-09-24, 02:06:04,VALID,998.255,VALID,0,VALID,89.4344,VALID,0,VALID,23.7384,VALID,47,VALID,1.81328,
2010-09-24, 02:07:04,VALID,998.258,VALID,0,VALID,89.4497,VALID,0,VALID,23.7189,VALID,36,VALID,1.69258,
2010-09-24, 02:08:04,VALID,998.284,VALID,0,VALID,89.5565,VALID,0,VALID,23.6799,VALID,29,VALID,1.42383,
2010-09-24, 02:09:04,VALID,998.286,VALID,0,VALID,89.6557,VALID,0,VALID,23.6799,VALID,20,VALID,1.53672,
2010-09-24, 02:10:04,VALID,998.276,VALID,0,VALID,89.7549,VALID,0,VALID,23.6604,VALID,20,VALID,1.12773,
2010-09-24, 02:11:04,VALID,998.348,VALID,0,VALID,89.7854,VALID,0,VALID,23.6427,VALID,6,VALID,0.93125,
2010-09-24, 02:12:04,VALID,998.394,VALID,0,VALID,89.8846,VALID,0,VALID,23.6232,VALID,340,VALID,0.326172,
2010-09-24, 02:13:04,VALID,998.374,VALID,0,VALID,89.9532,VALID,0,VALID,23.5823,VALID,62,VALID,0.976953,
2010-09-24, 02:14:04,VALID,998.401,VALID,0,VALID,90.0371,VALID,0,VALID,23.6036,VALID,61,VALID,1.25156,
2010-09-24, 02:15:04,VALID,998.443,VALID,0,VALID,90.1134,VALID,0,VALID,23.6019,VALID,57,VALID,1.21055,
2010-09-24, 02:16:04,VALID,998.45,VALID,0,VALID,90.0371,VALID,0,VALID,23.6622,VALID,30,VALID,1.04531,
2010-09-24, 02:17:04,VALID,998.423,VALID,0,VALID,89.9074,VALID,0,VALID,23.6817,VALID,25,VALID,1.41836,
2010-09-24, 02:18:04,VALID,998.469,VALID,0,VALID,89.8006,VALID,0,VALID,23.6799,VALID,29,VALID,1.67227,
2010-09-24, 02:19:04,VALID,998.485,VALID,0,VALID,89.7472,VALID,0,VALID,23.7207,VALID,35,VALID,1.65195,
2010-09-24, 02:20:04,VALID,998.445,VALID,0,VALID,89.6328,VALID,0,VALID,23.7402,VALID,31,VALID,1.73789,
2010-09-24, 02:21:04,VALID,998.419,VALID,0,VALID,89.5489,VALID,0,VALID,23.7384,VALID,18,VALID,2.0207,
2010-09-24, 02:22:04,VALID,998.389,VALID,0,VALID,89.442,VALID,0,VALID,23.7775,VALID,16,VALID,1.87109,
2010-09-24, 02:23:04,VALID,998.385,VALID,0,VALID,89.3657,VALID,0,VALID,23.7757,VALID,14,VALID,1.55781,
2010-09-24, 02:24:04,VALID,998.407,VALID,0,VALID,89.3963,VALID,0,VALID,23.7775,VALID,11,VALID,1.16367,
2010-09-24, 02:25:04,VALID,998.431,VALID,0,VALID,89.4878,VALID,0,VALID,23.7775,VALID,355,VALID,0.661719,
2010-09-24, 02:26:04,VALID,998.44,VALID,0,VALID,89.6862,VALID,0,VALID,23.7775,VALID,238,VALID,1.24453,
2010-09-24, 02:27:04,VALID,998.438,VALID,0,VALID,89.5412,VALID,0,VALID,23.8555,VALID,243,VALID,1.86016,
2010-09-24, 02:28:04,VALID,998.463,VALID,0,VALID,88.4731,VALID,0,VALID,23.9921,VALID,234,VALID,0.371094,
2010-09-24, 02:29:04,VALID,998.453,VALID,0,VALID,87.9314,VALID,0,VALID,24.0878,VALID,240,VALID,0.504297,
2010-09-24, 02:30:04,VALID,998.487,VALID,0,VALID,87.6414,VALID,0,VALID,24.1287,VALID,327,VALID,0.44375,
2010-09-24, 02:31:04,VALID,998.483,VALID,0,VALID,87.5423,VALID,0,VALID,24.1287,VALID,327,VALID,0,
2010-09-24, 02:32:04,VALID,998.47,VALID,0,VALID,87.5957,VALID,0,VALID,24.1287,VALID,327,VALID,0,
2010-09-24, 02:33:04,VALID,998.477,VALID,0,VALID,87.4736,VALID,0,VALID,24.1092,VALID,327,VALID,0.315625,
2010-09-24, 02:34:04,VALID,998.491,VALID,0,VALID,87.5117,VALID,0,VALID,24.0897,VALID,7,VALID,0.586328,
2010-09-24, 02:35:04,VALID,998.519,VALID,0,VALID,87.4126,VALID,0,VALID,24.0683,VALID,42,VALID,1.39336,
2010-09-24, 02:36:04,VALID,998.511,VALID,0,VALID,87.5117,VALID,0,VALID,24.0897,VALID,43,VALID,1.42891,
2010-09-24, 02:37:04,VALID,998.529,VALID,0,VALID,87.6643,VALID,0,VALID,24.0506,VALID,11,VALID,1.01211,
2010-09-24, 02:38:04,VALID,998.545,VALID,0,VALID,87.7406,VALID,0,VALID,24.0311,VALID,349,VALID,0.969531,
2010-09-24, 02:39:04,VALID,998.529,VALID,0,VALID,87.9314,VALID,0,VALID,24.0116,VALID,329,VALID,0.854688,
2010-09-24, 02:40:04,VALID,998.504,VALID,0,VALID,88.0763,VALID,0,VALID,24.0116,VALID,273,VALID,0.818359,
2010-09-24, 02:41:04,VALID,998.526,VALID,0,VALID,88.0077,VALID,0,VALID,24.0506,VALID,260,VALID,0.876562,
2010-09-24, 02:42:04,VALID,998.521,VALID,0,VALID,87.9161,VALID,0,VALID,24.0701,VALID,246,VALID,0.627734,
2010-09-24, 02:43:04,VALID,998.488,VALID,0,VALID,87.7711,VALID,0,VALID,24.1092,VALID,242,VALID,0.572656,
2010-09-24, 02:44:04,VALID,998.502,VALID,0,VALID,87.6338,VALID,0.112286,VALID,24.1287,VALID,241,VALID,0.433984,
2010-09-24, 02:45:04,VALID,998.455,VALID,0,VALID,87.6033,VALID,0,VALID,24.1092,VALID,241,VALID,0.295312,
2010-09-24, 02:46:04,VALID,998.433,VALID,0,VALID,87.672,VALID,0,VALID,24.1092,VALID,241,VALID,0.0164062,
2010-09-24, 02:47:04,VALID,998.417,VALID,0,VALID,87.7711,VALID,0,VALID,24.1092,VALID,241,VALID,0.104297,
2010-09-24, 02:48:04,VALID,998.368,VALID,0,VALID,87.8169,VALID,0,VALID,24.0878,VALID,241,VALID,0.129297,
2010-09-24, 02:49:04,VALID,998.376,VALID,0,VALID,87.7559,VALID,0,VALID,24.0897,VALID,241,VALID,0.0882813,
2010-09-24, 02:50:04,VALID,998.351,VALID,0,VALID,87.7559,VALID,0,VALID,24.0506,VALID,241,VALID,0.223047,
2010-09-24, 02:51:04,VALID,998.362,VALID,0,VALID,87.9466,VALID,0,VALID,24.0329,VALID,241,VALID,0.353516,
2010-09-24, 02:52:04,VALID,998.344,VALID,0,VALID,88.2518,VALID,0,VALID,23.9726,VALID,241,VALID,0.476953,
2010-09-24, 02:53:04,VALID,998.328,VALID,0,VALID,88.3815,VALID,0,VALID,23.9921,VALID,235,VALID,0.457422,
2010-09-24, 02:54:04,VALID,998.365,VALID,0,VALID,88.1603,VALID,0,VALID,24.0506,VALID,210,VALID,0.754297,
2010-09-24, 02:55:04,VALID,998.361,VALID,0,VALID,87.6338,VALID,0,VALID,24.0311,VALID,180,VALID,0.716797,
2010-09-24, 02:56:04,VALID,998.367,VALID,0,VALID,87.5117,VALID,0,VALID,24.0897,VALID,157,VALID,0.616797,
2010-09-24, 02:57:04,VALID,998.37,VALID,0,VALID,87.1303,VALID,0,VALID,24.1287,VALID,134,VALID,0.611719,
2010-09-24, 02:58:04,VALID,998.364,VALID,0,VALID,87.0921,VALID,0,VALID,24.1092,VALID,78,VALID,0.977734,
2010-09-24, 02:59:04,VALID,998.334,VALID,0,VALID,87.2905,VALID,0,VALID,24.0897,VALID,78,VALID,1.03281,
2010-09-24, 03:00:04,VALID,998.335,VALID,0,VALID,87.3592,VALID,0,VALID,24.0506,VALID,78,VALID,1.03984,
2010-09-24, 03:01:04,VALID,998.366,VALID,0,VALID,87.4126,VALID,0,VALID,24.0311,VALID,78,VALID,0.737891,
2010-09-24, 03:02:04,VALID,998.364,VALID,0,VALID,87.5804,VALID,0,VALID,23.9921,VALID,78,VALID,0.64375,
2010-09-24, 03:03:04,VALID,998.359,VALID,0,VALID,87.794,VALID,0,VALID,23.9726,VALID,78,VALID,0.552344,
2010-09-24, 03:04:04,VALID,998.35,VALID,0,VALID,87.7177,VALID,0,VALID,23.9726,VALID,102,VALID,0.717578,
2010-09-24, 03:05:04,VALID,998.368,VALID,0,VALID,87.7711,VALID,0,VALID,23.914,VALID,133,VALID,0.817578,
2010-09-24, 03:06:04,VALID,998.369,VALID,0,VALID,88.2594,VALID,0,VALID,23.914,VALID,133,VALID,0.873047,
2010-09-24, 03:07:04,VALID,998.358,VALID,0,VALID,87.6949,VALID,0,VALID,23.8732,VALID,127,VALID,1.01719,
2010-09-24, 03:08:04,VALID,998.354,VALID,0,VALID,87.9543,VALID,0,VALID,23.8342,VALID,127,VALID,1.05938,
2010-09-24, 03:09:04,VALID,998.367,VALID,0,VALID,88.1374,VALID,0,VALID,23.836,VALID,129,VALID,0.836719,
2010-09-24, 03:10:04,VALID,998.387,VALID,0,VALID,88.2366,VALID,0,VALID,23.797,VALID,129,VALID,0.774219,
2010-09-24, 03:11:04,VALID,998.391,VALID,0,VALID,88.5189,VALID,0,VALID,23.7366,VALID,129,VALID,0.905078,
2010-09-24, 03:12:04,VALID,998.424,VALID,0,VALID,88.7401,VALID,0,VALID,23.7579,VALID,129,VALID,0.952734,
2010-09-24, 03:13:04,VALID,998.453,VALID,0,VALID,88.9003,VALID,0.112286,VALID,23.7775,VALID,129,VALID,0.941016,
2010-09-24, 03:14:04,VALID,998.432,VALID,0,VALID,88.9003,VALID,0,VALID,23.7775,VALID,130,VALID,0.890625,
2010-09-24, 03:15:04,VALID,998.513,VALID,0,VALID,88.824,VALID,0,VALID,23.7775,VALID,130,VALID,0.646484,
2010-09-24, 03:16:04,VALID,998.476,VALID,0,VALID,88.763,VALID,0,VALID,23.797,VALID,130,VALID,0.642187,
2010-09-24, 03:17:04,VALID,998.502,VALID,0,VALID,88.7477,VALID,0,VALID,23.7775,VALID,107,VALID,0.769141,
2010-09-24, 03:18:04,VALID,998.549,VALID,0,VALID,88.6486,VALID,0,VALID,23.7775,VALID,104,VALID,0.780469,
2010-09-24, 03:19:04,VALID,998.546,VALID,0,VALID,88.9385,VALID,0,VALID,23.7793,VALID,104,VALID,0.825781,
2010-09-24, 03:20:04,VALID,998.573,VALID,0,VALID,89.1292,VALID,0,VALID,23.7189,VALID,101,VALID,0.845312,
2010-09-24, 03:21:04,VALID,998.592,VALID,0,VALID,89.2818,VALID,0,VALID,23.6994,VALID,98,VALID,0.678516,
2010-09-24, 03:22:04,VALID,998.585,VALID,0,VALID,89.4954,VALID,0,VALID,23.7012,VALID,78,VALID,0.739844,
2010-09-24, 03:23:04,VALID,998.605,VALID,0,VALID,89.587,VALID,0,VALID,23.6604,VALID,57,VALID,0.819141,
2010-09-24, 03:24:04,VALID,998.599,VALID,0,VALID,89.5183,VALID,0,VALID,23.6019,VALID,35,VALID,0.811719,
2010-09-24, 03:25:04,VALID,998.606,VALID,0,VALID,89.6328,VALID,0,VALID,23.5433,VALID,27,VALID,0.75,
2010-09-24, 03:26:04,VALID,998.603,VALID,0,VALID,89.7549,VALID,0,VALID,23.5061,VALID,2,VALID,0.952344,
2010-09-24, 03:27:04,VALID,998.628,VALID,0,VALID,89.8235,VALID,0.112286,VALID,23.4653,VALID,1,VALID,0.591797,
2010-09-24, 03:28:04,VALID,998.697,VALID,0,VALID,89.9685,VALID,0,VALID,23.4671,VALID,1,VALID,0.736328,
2010-09-24, 03:29:04,VALID,998.701,VALID,0,VALID,90.0371,VALID,0,VALID,23.4263,VALID,23,VALID,1.00859,
2010-09-24, 03:30:04,VALID,998.753,VALID,0,VALID,89.999,VALID,0,VALID,23.3872,VALID,35,VALID,1.50937,
2010-09-24, 03:31:04,VALID,998.781,VALID,0,VALID,90.1592,VALID,0,VALID,23.3677,VALID,38,VALID,1.49258,
2010-09-24, 03:32:04,VALID,998.834,VALID,0,VALID,90.3728,VALID,0,VALID,23.3287,VALID,37,VALID,1.12734,
2010-09-24, 03:33:04,VALID,998.859,VALID,0,VALID,90.7543,VALID,0,VALID,23.3287,VALID,42,VALID,1.32227,
2010-09-24, 03:34:04,VALID,998.875,VALID,0,VALID,91.0443,VALID,0,VALID,23.3092,VALID,43,VALID,1.36055,
2010-09-24, 03:35:04,VALID,998.909,VALID,0,VALID,91.2731,VALID,0,VALID,23.3092,VALID,33,VALID,1.325,
2010-09-24, 03:36:04,VALID,998.958,VALID,0,VALID,91.4105,VALID,0,VALID,23.3092,VALID,28,VALID,1.88867,
2010-09-24, 03:37:04,VALID,999.009,VALID,0,VALID,91.5707,VALID,0,VALID,23.3305,VALID,29,VALID,1.90664,
2010-09-24, 03:38:04,VALID,999.043,VALID,0,VALID,91.586,VALID,0,VALID,23.3305,VALID,24,VALID,1.58555,
2010-09-24, 03:39:04,VALID,999.091,VALID,0,VALID,91.5478,VALID,0,VALID,23.3323,VALID,23,VALID,1.94297,
2010-09-24, 03:40:04,VALID,999.119,VALID,0,VALID,91.5554,VALID,0,VALID,23.3518,VALID,22,VALID,2.08086,
2010-09-24, 03:41:04,VALID,999.157,VALID,0,VALID,91.5631,VALID,0,VALID,23.3695,VALID,28,VALID,1.82148,
2010-09-24, 03:42:04,VALID,999.133,VALID,0,VALID,91.5326,VALID,0,VALID,23.389,VALID,24,VALID,1.6457,
2010-09-24, 03:43:04,VALID,999.18,VALID,0,VALID,91.502,VALID,0,VALID,23.4085,VALID,16,VALID,1.19062,
2010-09-24, 03:44:04,VALID,999.124,VALID,0,VALID,91.4563,VALID,0,VALID,23.428,VALID,357,VALID,0.773047,
2010-09-24, 03:45:04,VALID,999.151,VALID,0,VALID,91.4257,VALID,0,VALID,23.4493,VALID,338,VALID,0.718359,
2010-09-24, 03:46:04,VALID,999.14,VALID,0,VALID,91.3876,VALID,0,VALID,23.4475,VALID,310,VALID,0.815625,